Weather in Obanino

Russia / Kurgan Oblast     54°50′49″N   64°39′11″E
temp.,
°C
wind,
m/s
gust,
m/s
humid.,
%
clouds,
%
prec.,
mm/h
press.,
hPa
HPBL,
m
18 august, thu
thu1823:00+13ene2251100 0.0 102134
02:00+10nne356187 0.0 102185
05:00+7nne36754 0.0 1022101
08:00+10nne466490 0.0 1023400
11:00+14nne554679 0.0 10231895
14:00+15nne7643100 0.0 10231824
17:00+14nne5644100 0.0 10241562
20:00+12nne374861 0.0 1025274
19 august, fri
fri1923:00+8nne35665 0.0 102671
02:00+6nne35765 0.0 102778
05:00+5n36875 0.0 102994
08:00+9n46725 0.0 1030438
11:00+13n5654100 0.0 10291408
14:00+15n4646100 0.0 10281564
17:00+17nnw674789 0.0 10261641
20:00+15nw366199 0.0 1026158
20 august, sat
sat2023:00+15wnw4106090 0.0 1024269
02:00+15n4106199 0.0 1023330
05:00+13n3569100 0.0 1024146
08:00+14nne2369100 0.0 1024201
11:00+17ese226197 0.0 1025599
14:00+14se5688100 0.4 1025253
17:00+13s349588 5.6 1024150
20:00+13s2395100 0.1 102467
21 august, sun
sun2123:00+12s2396100 0.1 102469
02:00+12s2394100 0.0 102492
05:00+12ssw2294100 0.2 102460
08:00+13w1292100 0.3 1025129
11:00+15nne468780 0.3 1026600
14:00+16nne5570100 0.1 10261036
17:00+17nne5564100 0.1 10261177
20:00+14nne367137 0.0 1027247
22 august, mon
mon2223:00+11nne22845 0.0 102820
02:00+9n338732 0.0 102836
05:00+8n34915 0.0 102962
08:00+13nne34645 0.0 1030228
11:00+18ne34435 0.0 1030988
14:00+21ne34365 0.0 10291592
17:00+21ne34369 0.0 10291591
20:00+15e225430 0.0 103013